Theta_e
350 352 347 348 351 347 343 340 338 336 332 329 328 325 322 318 318 317 316 315 315 314 312 309 308 312 314 315 314 314 314 315 316 318 320 320 320 320
351 352 347 347 348 349 345 340 340 338 337 330 329 326 324 322 324 321 317 316 315 314 314 312 309 308 308 307 307 307 308 312 314 315 315 317 319 319
350 351 346 342 347 349 347 343 343 341 338 335 330 327 324 325 325 324 321 317 316 314 314 314 313 310 309 309 308 308 306 304 304 306 310 314 315 318
348 348 346 345 347 342 345 348 346 344 340 331 328 326 326 326 326 327 325 320 319 316 315 315 314 313 311 310 309 309 309 309 305 304 305 306 309 314
350 348 343 343 345 344 339 344 345 346 340 334 332 328 327 327 325 327 326 325 325 319 317 316 315 314 313 312 311 310 309 310 309 305 305 305 304 305
350 349 341 344 345 344 340 338 344 342 338 335 333 330 330 326 328 329 328 329 326 324 319 318 318 317 314 313 312 311 310 309 309 309 306 305 305 305
348 344 343 343 343 342 339 336 344 342 339 334 333 333 335 330 330 331 330 331 325 325 323 320 320 318 316 314 313 311 310 310 309 310 309 306 305 306
344 341 342 340 340 339 334 338 340 342 340 338 336 336 335 334 332 332 331 332 327 326 326 325 322 322 321 319 319 315 312 310 310 310 311 309 306 306
341 340 339 339 338 337 338 342 341 339 340 340 338 339 337 334 333 333 333 334 332 332 328 326 323 323 324 321 322 320 317 315 312 312 312 311 309 306
340 338 337 334 332 332 337 338 337 332 334 334 333 333 334 332 333 330 329 329 330 328 330 325 324 325 325 321 320 321 319 317 313 312 312 312 310 307
339 333 332 332 329 326 334 337 334 331 330 331 332 333 331 330 329 328 329 329 329 329 327 325 320 324 321 320 322 320 320 317 315 313 313 312 307 306
335 334 333 332 330 330 328 333 333 331 329 328 328 332 332 331 330 330 327 327 328 327 327 324 322 319 323 322 321 321 321 319 316 315 314 314 311 309
334 333 331 332 331 333 332 332 332 331 329 328 325 326 327 325 323 322 325 325 325 326 326 324 322 319 319 323 322 321 321 321 318 316 316 315 314 311
333 332 330 328 329 332 332 332 337 334 332 328 321 322 320 316 316 319 323 325 326 326 325 323 321 317 319 319 320 322 321 321 319 318 318 318 317 314
331 325 323 324 324 327 326 332 334 332 331 325 319 316 313 314 312 313 310 313 322 325 324 323 321 319 321 323 323 323 324 322 320 319 318 318 317 315
330 329 327 326 325 321 319 329 329 328 325 323 321 322 323 323 323 324 323 323 314 314 316 316 321 321 321 319 319 321 322 322 321 319 318 318 316 316
330 328 327 329 328 324 319 313 318 321 322 322 324 325 323 326 326 325 325 325 322 322 323 323 324 320 321 320 320 317 320 320 318 317 317 318 318 315
330 329 328 327 327 325 321 317 316 317 319 321 321 321 320 322 326 328 328 327 326 325 325 326 326 324 324 324 321 320 317 321 319 317 317 317 318 315
330 329 330 329 327 325 324 324 325 325 323 320 319 319 318 320 321 324 329 329 328 328 328 328 327 326 324 324 323 322 322 319 320 317 316 316 317 317
332 329 330 331 331 330 329 329 329 328 328 328 326 324 322 320 322 326 327 328 329 329 328 327 328 327 326 325 324 324 324 323 320 319 316 315 318 316
334 332 331 330 331 334 334 332 331 331 330 329 329 327 326 325 324 324 324 327 329 328 329 328 329 328 327 326 324 324 324 324 323 321 319 315 318 314
336 334 334 333 333 332 333 334 334 333 331 330 330 329 328 327 325 326 327 327 327 326 326 325 326 328 327 326 325 324 324 324 322 321 320 317 316 313
343 340 339 337 337 336 337 337 334 334 335 332 331 329 328 327 326 326 327 328 327 326 325 324 324 325 327 326 325 323 322 321 320 318 315 314 315 315
Wind_Speed
10 8 5 3 4 23 21 27 22 4 3 14 10 18 15 13 13 11 12 12 14 15 16 18 19 19 19 19 20 20 20 20 19 19 18 18 19 19
10 10 6 2 5 19 26 27 21 15 4 25 13 26 18 15 12 9 9 9 10 11 13 14 15 16 17 18 20 20 20 20 19 18 17 15 14 15
7 10 8 8 2 11 25 29 24 19 13 18 23 27 23 19 15 11 8 8 9 9 9 9 10 11 13 14 15 17 18 17 17 17 15 13 13 12
12 11 9 8 5 5 12 18 28 23 22 22 26 28 26 21 17 15 14 11 8 8 8 6 6 7 7 8 10 12 13 14 14 14 15 14 12 11
14 12 9 9 9 6 4 11 13 22 22 21 21 28 25 25 20 15 15 14 14 11 9 7 5 5 5 5 5 6 7 9 10 11 12 12 11 10
15 11 12 10 10 9 7 6 17 24 27 27 25 28 25 26 19 20 18 19 24 19 15 11 10 8 8 8 7 6 5 4 5 7 7 8 9 9
16 12 14 14 11 10 10 10 17 27 28 27 23 21 21 23 24 18 17 17 23 19 18 17 16 15 15 14 12 11 8 6 4 2 3 3 4 5
17 16 16 15 13 12 12 13 11 24 29 27 24 22 26 28 29 23 18 12 9 20 21 20 19 19 18 18 16 14 12 10 8 5 2 2 2 2
18 20 17 16 15 14 11 13 13 15 20 23 27 30 31 32 29 24 19 17 20 14 23 23 24 25 19 16 15 16 15 13 11 8 6 5 5 4
21 20 18 16 18 18 16 14 14 13 12 11 17 24 25 22 25 22 17 10 11 14 24 13 13 19 20 18 14 13 15 12 10 8 7 7 6 6
19 18 18 17 19 19 21 18 15 14 13 11 10 11 16 20 21 19 19 16 9 11 18 13 9 17 15 18 14 12 13 11 10 10 9 6 5 6
20 19 19 18 21 20 21 23 21 20 18 15 13 14 14 16 18 21 23 22 13 10 17 20 18 14 6 19 18 15 17 17 15 15 13 11 9 9
26 24 22 22 22 23 21 23 24 20 19 17 17 17 17 17 19 19 21 21 20 17 8 24 21 19 14 4 15 22 22 22 22 20 17 16 12 15
27 26 26 26 24 24 24 22 22 22 20 19 19 21 22 22 22 23 25 23 22 19 17 13 17 20 20 16 8 16 24 27 24 20 18 13 14 14
25 22 23 25 26 25 24 24 24 23 23 23 24 24 23 19 18 20 22 26 28 25 21 16 26 16 13 13 10 9 9 18 23 20 17 13 12 12
25 22 24 22 22 26 25 29 26 26 26 27 25 23 20 21 23 22 24 23 25 29 29 26 25 25 23 22 17 14 10 12 19 22 17 13 10 9
25 23 24 27 29 28 28 30 31 29 30 30 27 24 26 27 31 30 31 31 32 30 30 27 25 28 29 26 26 23 18 17 20 24 18 11 9 11
32 26 25 26 31 34 33 34 34 35 34 34 34 34 32 27 29 30 33 33 29 30 32 29 27 26 28 29 28 26 23 22 20 21 15 11 12 9
31 26 26 28 30 34 36 36 35 38 37 38 38 38 36 34 32 30 31 32 28 27 31 31 30 27 14 9 21 29 31 30 25 22 19 16 15 11
29 29 27 28 31 32 33 34 32 30 33 36 37 37 36 34 33 34 34 32 29 30 32 34 32 34 27 21 17 25 27 33 32 30 25 19 15 11
33 29 32 33 32 28 30 32 33 34 35 34 37 35 35 34 32 31 31 32 31 30 29 32 40 40 38 28 16 19 23 34 33 34 30 21 15 11
35 36 34 34 33 34 34 32 33 35 34 35 36 37 38 39 34 32 31 30 34 35 37 33 31 29 33 32 27 26 31 30 39 37 29 28 15 9
35 37 37 36 36 37 33 34 35 35 36 37 37 37 37 37 37 34 34 36 34 34 37 32 32 32 35 35 34 27 28 30 36 34 33 33 28 18
Wind_Direction
248 241 288 81 155 193 179 168 159 149 186 173 154 174 160 157 143 139 129 119 107 97 91 86 85 85 85 83 81 79 77 76 75 74 76 77 77 79
226 235 239 216 67 202 190 180 180 157 152 170 173 178 170 164 160 153 148 140 128 114 103 95 91 89 86 83 79 77 78 80 79 77 76 79 83 82
193 196 222 240 53 168 195 191 192 177 159 164 182 177 172 170 181 184 185 173 156 144 128 110 105 99 94 88 86 82 78 79 79 75 74 78 85 92
182 195 213 208 195 123 137 183 203 192 168 154 171 179 181 181 190 202 207 201 192 180 167 149 126 121 115 107 97 89 80 76 77 77 70 72 80 92
194 201 209 200 201 183 151 127 159 188 183 167 172 181 186 187 188 203 212 217 220 214 195 186 185 177 168 150 125 109 96 82 74 70 71 70 74 81
199 213 197 193 193 195 191 146 168 172 177 171 166 173 183 188 200 203 213 223 221 217 214 208 212 213 208 205 199 188 163 128 93 75 73 76 78 81
201 201 192 201 199 205 198 193 173 174 180 176 174 182 189 190 201 213 217 207 201 210 214 213 220 222 223 220 221 217 205 198 184 134 99 93 93 103
196 194 197 202 198 207 201 204 194 181 182 183 185 189 195 198 206 214 224 184 195 221 223 227 229 234 233 234 232 228 220 216 218 217 223 198 174 184
201 199 198 198 202 206 191 184 190 191 200 202 191 197 198 205 207 214 220 226 220 226 212 230 230 235 241 244 237 234 227 228 231 229 248 251 232 233
202 207 208 208 213 205 194 183 184 183 178 188 205 207 209 212 199 207 202 191 177 188 202 216 225 246 228 238 222 223 223 229 234 239 252 265 256 256
214 217 211 216 207 200 201 195 195 201 198 194 188 180 183 187 200 203 199 188 191 199 208 228 229 222 231 228 224 221 221 225 227 226 232 237 236 220
206 206 210 214 203 202 208 203 202 207 211 210 195 190 203 209 218 225 222 207 200 217 225 220 233 211 211 229 230 223 222 228 229 230 233 236 237 238
203 207 206 204 207 206 209 207 212 210 213 216 213 209 212 218 220 219 214 218 217 221 254 229 234 218 219 188 223 227 230 233 231 233 233 240 243 247
212 217 219 213 212 213 213 212 210 210 213 221 215 215 218 220 221 223 220 221 226 237 246 259 228 222 227 230 227 229 238 240 236 239 235 245 249 254
226 226 217 214 218 219 218 210 206 211 218 216 218 215 216 220 224 226 228 229 233 239 244 239 221 232 229 231 233 237 236 243 232 233 218 239 247 255
217 217 217 219 218 219 217 216 219 218 218 220 226 228 226 227 227 227 227 225 228 236 242 247 239 238 244 251 250 238 223 201 205 205 210 218 228 253
212 212 208 211 213 214 217 221 223 223 221 223 229 234 234 231 233 233 234 233 228 232 238 243 249 249 251 254 253 251 245 223 210 204 210 236 285 251
212 216 214 210 213 215 216 223 227 228 227 229 231 236 242 242 241 237 234 226 223 227 237 246 242 237 240 248 247 250 245 241 220 210 221 239 274 273
210 218 218 218 217 214 217 221 227 234 236 235 234 234 236 242 244 244 239 231 226 228 235 242 234 222 208 231 242 241 238 237 225 214 221 232 256 270
210 217 220 219 220 220 222 225 228 229 231 235 234 233 232 232 237 239 240 238 233 233 239 238 227 217 210 225 224 237 235 234 227 225 220 229 246 256
214 219 224 225 226 226 229 229 227 228 228 226 229 230 230 230 231 235 237 241 240 239 233 232 238 245 246 235 225 226 234 228 236 234 225 219 231 241
211 214 220 224 227 231 234 238 234 230 230 227 228 228 229 230 228 230 230 230 234 238 243 246 248 241 226 217 225 227 229 227 225 233 240 236 213 214
217 221 222 222 226 226 229 234 236 240 236 230 230 228 227 225 228 227 230 234 234 238 243 244 247 237 227 217 221 219 219 215 218 215 218 218 225 240